Simultaneous Nadir Overpasses (SNOs) Predictions

Prediction of SNOs between FY3D and AQUA Satellite Orbit:

Table of predicted SNOs for the next 14.0 days since TLE Epoch: 6/29/2024
Index Date (FY3D) Time (FY3D) Lat,Lon (FY3D) SZA (FY3D ) Date (AQUA) Time (AQUA) Lat,Lon (AQUA) SZA (AQUA ) Distance(km) Time Diff (sec)
1 06/29/2024 07:21:40 79.55, 49.99 57.03 06/29/2024 07:22:43 79.54, 50.06 57.00 1.64 63
2 06/29/2024 08:12:19 -79.35,-140.97 123.28 06/29/2024 08:11:59 -79.34,-140.84 123.29 2.85 20
3 07/01/2024 19:25:16 -79.49, 49.68 122.90 07/01/2024 19:26:14 -79.49, 49.60 122.91 1.76 58
4 07/01/2024 20:15:57 79.35,-141.81 56.89 07/01/2024 20:15:32 79.34,-141.67 56.88 3.18 25
5 07/04/2024 07:28:55 79.56, 48.22 57.42 07/04/2024 07:29:46 79.55, 48.33 57.39 2.27 51
6 07/04/2024 08:19:31 -79.26,-141.94 123.03 07/04/2024 08:19:00 -79.27,-142.01 123.01 1.61 31
7 07/06/2024 19:32:32 -79.54, 47.52 122.36 07/06/2024 19:33:15 -79.53, 47.64 122.39 2.66 43
8 07/06/2024 20:23:08 79.24,-142.62 57.20 07/06/2024 20:22:29 79.24,-142.65 57.21 0.67 39
9 07/09/2024 07:36:08 79.50, 47.06 57.87 07/09/2024 07:36:42 79.49, 47.10 57.85 0.89 34
10 07/09/2024 08:26:44 -79.20,-143.14 122.58 07/09/2024 08:25:56 -79.20,-143.22 122.56 1.67 48
11 07/11/2024 19:39:43 -79.43, 46.77 121.90 07/11/2024 19:40:07 -79.44, 46.71 121.90 1.43 24



Historial Predications of SNOs between FY3D and AQUA
